Location: Drocourt
(49.0571°N, 1.7669°E)
Time: 20:54:31
(UTC+00:00)

S-56A Canister/Altair - Pass Details

Date: 21 April 2024
Orbit: 638 x 2488 km, 38.9° (Epoch: 20 May)

Event Time Altitude Azimuth Distance (km) Brightness Sun altitude
Rises 16:20:11 0° 220° (SW) 3,093 11.4 24.1°
Reaches altitude 10° 16:22:46 10° 205° (SSW) 2,314 10.6 23.7°
Maximum altitude 16:26:56 23° 153° (SSE) 1,840 9.4 23.0°
Drops below altitude 10° 16:32:15 10° 104° (ESE) 3,038 10.1 22.1°
Sets 16:36:12 0° 92° (E) 4,349 10.8 21.5°
